Theta_e
324 324 325 325 325 325 324 323 322 322 323 324 325 325 325 328 325 317 309 315 326 336 330 322 319 316 313 312 312 309 301 296 298 298 301 305 306 308 308 306 307 309 313 324 334
325 324 324 324 324 324 325 323 322 322 323 325 324 324 325 327 315 309 318 329 334 335 315 313 313 312 308 308 310 306 298 297 302 302 302 306 306 307 306 305 306 307 314 326 334
326 326 324 324 324 324 324 324 323 322 323 325 324 323 324 324 306 310 332 334 335 334 318 316 314 311 306 308 306 303 300 301 302 304 306 307 307 307 305 303 306 307 309 318 331
327 326 325 324 324 323 324 324 323 322 323 323 323 323 325 317 298 309 338 335 342 321 318 313 311 307 304 302 306 302 305 305 307 308 306 305 307 304 304 307 310 309 309 309 321
327 327 326 324 323 323 323 323 323 322 322 322 324 322 314 301 301 320 338 336 327 320 313 311 307 305 302 303 303 302 303 305 306 304 303 304 303 303 304 308 308 307 307 308 309
327 327 326 324 323 323 323 323 322 322 322 324 323 321 309 298 314 325 321 316 318 315 312 312 309 308 303 302 301 302 302 302 303 303 303 301 302 302 304 305 305 304 305 306 307
328 327 326 325 324 323 323 322 322 321 322 321 321 318 307 301 313 313 319 316 317 314 310 314 310 306 304 301 304 302 299 300 301 301 301 302 297 299 304 303 304 304 305 305 306
328 327 326 324 323 323 322 321 320 321 322 321 323 314 299 310 315 310 316 312 316 318 317 317 313 309 305 305 302 299 297 293 299 300 300 301 294 301 303 302 303 304 305 304 305
328 327 325 324 323 323 321 319 318 323 322 323 315 311 301 317 308 306 308 309 311 315 317 315 311 304 304 298 296 295 291 291 294 299 299 298 295 300 304 303 302 304 304 304 304
327 325 324 323 322 321 318 315 314 309 308 320 317 305 305 300 302 304 305 308 308 312 310 307 302 298 297 296 288 290 291 291 291 297 299 297 297 300 302 302 302 302 301 302 304
326 324 323 322 321 318 306 298 295 297 296 295 294 296 301 300 303 303 305 308 308 306 301 301 298 294 297 297 294 293 291 291 293 298 296 296 296 298 302 302 301 300 302 304 305
326 325 322 321 319 312 301 296 295 295 289 297 297 296 298 299 297 303 307 300 302 296 300 298 294 298 298 297 295 294 292 292 296 297 296 296 295 298 300 300 300 300 301 302 304
324 324 321 319 314 300 298 297 300 300 291 295 298 298 299 300 300 301 304 302 298 295 296 293 296 300 298 296 294 294 293 292 292 295 296 293 292 294 299 299 301 300 301 302 302
322 323 318 318 309 297 297 300 299 302 287 291 297 302 304 304 297 299 299 301 298 294 294 294 297 296 295 294 295 290 296 295 293 291 287 293 286 292 295 295 297 297 297 299 301
321 321 313 314 305 298 299 299 300 297 280 295 298 305 299 297 295 298 299 301 295 295 295 292 292 291 292 292 295 292 292 293 293 291 288 289 287 291 293 293 293 293 294 296 299
321 321 312 306 300 300 298 298 297 287 280 291 293 291 290 291 291 293 294 296 297 293 292 291 293 289 289 289 291 291 291 292 291 289 283 288 288 288 289 290 289 291 292 294 296
320 321 313 302 304 298 298 295 287 281 291 288 288 289 287 287 287 290 288 288 287 284 284 288 287 287 287 286 289 290 288 282 281 282 281 288 286 289 290 290 289 289 291 293 295
319 319 314 306 300 299 294 292 282 288 288 292 288 287 286 286 285 286 286 284 285 286 282 281 282 284 286 285 284 284 287 283 276 278 281 284 284 288 290 290 289 289 290 292 294
314 307 306 306 307 300 292 284 285 287 291 288 288 284 284 284 283 283 283 283 285 285 283 279 280 285 285 285 285 283 280 283 279 280 277 282 284 290 289 286 287 287 288 289 292
306 305 302 298 302 297 292 288 288 291 290 288 285 287 283 283 282 281 281 285 284 285 285 282 277 282 284 286 285 282 284 278 281 273 273 279 279 283 282 283 285 285 286 288 290
304 299 297 298 300 292 288 285 289 293 292 289 287 286 287 285 282 281 283 284 286 284 285 282 279 278 281 279 278 280 279 280 281 280 275 273 277 285 283 284 283 284 285 287 289
302 291 296 299 289 289 286 290 295 291 289 290 287 288 287 288 286 285 281 284 287 286 281 283 280 275 277 282 283 282 280 281 277 274 276 274 275 286 283 284 284 285 286 287 289
298 294 298 296 286 283 286 287 290 290 290 288 287 288 286 283 282 283 283 288 288 286 282 284 279 274 275 278 281 279 280 280 278 277 272 272 275 286 284 283 285 285 286 287 288
295 289 288 292 291 287 285 287 288 291 290 290 288 289 287 284 286 284 284 286 288 287 291 287 279 276 274 275 278 276 278 279 276 272 271 274 275 279 281 282 284 285 286 288 289
295 290 290 277 285 287 288 287 286 287 290 290 287 286 286 282 282 281 284 284 286 288 287 284 276 278 278 278 278 277 277 277 274 274 272 274 274 278 281 282 284 287 288 289 289
291 289 290 286 285 284 286 284 283 286 288 285 285 287 286 282 283 282 283 283 281 283 282 281 277 278 274 276 276 276 278 278 278 277 275 276 276 282 286 289 288 289 290 291 291
290 294 293 289 285 283 280 282 284 287 288 289 286 285 283 285 287 285 287 283 283 280 278 278 276 274 270 274 275 272 276 277 277 278 277 275 281 284 286 287 289 289 290 291 292
Wind_Speed
15 16 16 17 18 18 19 20 20 19 18 18 17 17 17 15 10 1 3 2 0 4 5 4 3 3 3 3 3 2 2 2 3 5 1 3 5 3 2 2 3 2 2 3 2
16 17 17 18 19 18 18 20 20 20 18 16 17 17 16 15 2 2 5 4 3 6 4 4 3 2 3 2 2 3 1 3 2 2 1 5 4 8 5 4 3 4 2 3 5
16 17 18 18 19 18 18 19 20 20 19 18 17 16 14 8 3 2 2 5 4 5 4 3 4 3 2 1 1 3 4 4 3 5 2 4 6 2 4 3 4 6 7 4 1
16 17 18 18 19 19 19 20 22 21 21 20 17 13 13 1 2 1 3 3 6 6 4 5 3 3 2 1 0 2 5 3 4 0 3 3 2 3 5 10 7 7 7 4 6
15 17 18 19 21 22 22 22 22 21 21 19 13 8 3 2 6 0 5 7 5 4 5 4 4 4 3 3 3 5 4 4 5 7 7 2 8 5 11 12 12 9 11 14 11
14 16 17 19 21 22 23 23 24 22 20 15 2 1 2 2 1 3 5 3 3 3 3 4 6 4 3 4 4 4 4 6 7 6 5 6 6 3 0 4 10 7 8 9 10
13 15 18 19 20 22 24 23 23 21 15 4 4 2 4 7 2 2 1 0 3 3 3 2 3 3 2 3 3 3 6 7 5 2 3 3 2 6 2 4 12 10 10 8 9
12 15 17 18 20 24 26 23 22 11 4 3 2 1 4 2 1 0 2 1 2 1 1 1 2 3 1 2 5 4 2 4 5 5 2 1 6 3 4 10 14 14 14 7 8
11 13 16 18 21 25 28 24 11 3 2 2 2 2 5 5 4 4 2 2 3 2 2 5 4 3 4 3 4 2 6 2 6 3 4 3 4 7 17 12 13 14 14 15 13
10 11 13 17 20 25 28 18 6 4 2 2 1 2 4 3 4 5 3 1 3 3 3 5 4 3 3 2 5 3 4 3 4 4 9 13 18 9 11 9 13 13 14 14 15
13 12 11 15 18 22 13 6 10 6 10 5 5 5 4 8 3 1 1 3 3 6 2 3 2 5 9 5 2 1 3 10 7 10 8 12 14 12 14 14 10 10 13 13 15
12 11 10 14 16 13 5 7 2 4 11 3 5 5 5 2 3 3 2 4 3 4 3 2 5 7 5 4 5 5 6 10 9 8 4 10 14 13 13 2 10 12 14 17 20
10 10 10 13 11 5 3 3 4 3 2 8 3 4 3 4 1 4 2 2 3 4 5 7 4 3 4 4 6 6 8 5 11 5 5 5 7 3 1 10 10 13 11 14 17
9 8 9 14 5 3 2 3 3 2 4 5 3 1 1 2 3 2 3 2 1 4 5 5 3 4 4 5 7 6 8 13 8 3 5 2 9 6 2 6 13 16 16 16 19
8 4 6 7 2 2 5 5 1 1 6 1 1 1 1 3 2 0 1 1 4 4 4 4 1 1 3 4 4 6 4 4 4 4 3 4 4 4 1 4 12 14 15 16 16
8 2 4 2 1 4 5 5 2 5 8 1 2 3 2 4 4 6 3 6 1 2 2 4 1 1 2 3 3 3 3 0 1 2 9 11 10 9 3 3 7 14 15 16 17
6 2 3 2 2 5 3 3 5 3 7 4 3 4 2 2 2 3 2 1 3 0 3 1 2 2 0 2 1 2 3 3 5 4 9 1 6 4 6 5 5 10 14 17 17
5 4 3 2 1 5 3 6 3 4 5 2 2 2 5 2 2 0 1 3 3 3 3 5 10 6 1 1 1 2 4 6 7 5 5 4 6 3 7 4 6 7 11 15 19
10 1 2 2 3 2 5 3 8 6 2 4 4 3 2 3 2 3 3 5 5 7 8 6 6 0 1 1 1 3 3 3 2 3 4 6 2 6 3 5 9 12 15 17 18
3 1 1 7 2 2 2 6 6 4 1 3 2 4 3 2 2 2 3 3 4 5 1 2 4 1 1 0 2 2 3 3 3 4 6 5 5 4 1 8 12 16 18 18 17
3 1 2 5 2 3 4 7 5 4 1 3 3 6 6 8 6 6 6 3 4 3 3 2 2 1 1 1 1 0 2 5 2 3 4 4 5 4 2 5 11 13 16 17 17
3 1 3 2 3 2 4 5 4 3 1 5 4 8 13 15 18 12 7 4 3 4 5 2 2 1 1 2 4 2 1 3 5 6 1 2 12 3 8 12 18 20 17 15 16
1 1 2 2 4 3 3 3 3 4 6 3 3 1 2 2 5 3 4 6 4 2 3 4 2 2 4 1 1 2 1 1 4 3 4 3 6 2 16 21 20 20 19 17 18
2 1 3 2 1 2 2 4 4 3 2 4 1 2 1 3 0 4 3 2 7 4 9 8 2 5 5 2 3 3 4 2 3 2 2 8 17 16 18 19 20 21 20 18 18
3 0 1 2 3 4 2 4 1 3 1 2 2 7 4 4 4 6 6 3 5 5 3 3 6 6 3 2 2 3 5 8 6 5 6 5 5 16 18 18 18 19 20 21 21
2 2 1 1 1 1 6 4 5 6 4 4 7 4 9 7 8 4 5 4 4 5 6 3 2 1 3 2 2 8 10 10 11 9 11 15 18 11 11 16 17 17 18 20 19
1 2 1 4 3 2 5 7 5 2 9 6 8 2 7 16 6 4 5 3 2 5 5 4 5 3 3 2 4 7 8 14 5 5 5 5 8 10 17 17 18 17 16 20 18
Wind_Direction
1 358 356 354 353 351 347 345 341 339 338 332 331 330 329 330 331 82 266 220 118 145 85 113 56 43 46 73 60 129 68 216 239 168 200 25 10 334 299 256 325 305 264 301 331
358 356 354 352 349 345 341 339 338 334 329 324 324 323 325 334 341 281 241 171 215 141 97 116 117 74 52 62 37 86 131 231 250 231 321 337 6 328 322 342 295 296 246 300 150
355 353 351 348 344 341 337 334 333 330 325 323 323 322 325 333 311 292 148 182 194 154 118 103 108 75 80 72 184 161 215 190 219 224 243 306 311 282 289 312 234 294 297 312 208
350 349 346 343 341 338 335 331 330 328 323 322 321 321 320 305 321 186 146 153 145 139 106 106 94 98 114 251 127 299 268 239 295 293 316 265 285 262 232 268 255 267 280 269 256
346 347 345 341 338 337 332 327 326 324 320 319 317 322 354 19 253 116 110 117 108 127 152 138 133 140 190 195 174 200 239 245 244 280 268 228 242 246 259 277 300 287 280 275 268
342 343 340 337 336 333 328 323 324 320 319 316 321 351 93 258 36 97 124 124 129 108 159 142 184 185 166 202 189 198 235 258 271 245 239 254 272 156 356 333 319 335 310 282 276
338 340 341 338 334 329 323 322 318 320 320 2 128 136 105 236 69 349 178 94 168 144 148 224 135 95 106 316 338 324 313 330 263 277 266 154 248 226 272 342 322 317 308 305 289
340 340 340 336 333 328 323 325 322 326 4 49 74 13 239 243 226 169 129 343 120 161 350 139 118 78 38 95 18 332 39 328 328 351 4 172 286 292 329 344 322 308 311 299 299
335 336 340 337 335 330 322 325 322 17 80 116 20 30 300 318 45 345 33 63 110 91 80 103 77 80 31 50 335 358 270 236 301 348 337 16 288 284 311 323 308 300 313 329 334
328 337 340 337 337 332 322 326 303 342 290 214 240 348 357 341 320 332 322 37 90 95 65 55 54 76 61 138 251 259 268 277 276 314 305 291 284 298 288 289 288 314 337 349 346
336 337 351 337 339 335 341 7 9 353 44 309 283 251 262 296 270 297 308 92 75 59 161 23 128 210 221 202 141 94 260 275 254 263 286 266 277 272 281 294 325 18 1 350 348
339 328 349 336 336 341 9 68 110 241 309 320 255 266 266 245 292 327 116 127 125 177 124 13 247 238 207 184 218 224 265 272 283 267 213 270 278 269 263 318 67 22 4 356 348
340 342 350 332 333 38 44 98 287 171 298 308 267 287 315 155 77 332 21 133 114 151 188 188 202 107 155 205 223 230 241 245 264 329 257 292 277 252 170 111 53 31 11 359 353
339 345 354 326 51 318 28 340 314 161 42 285 346 357 126 264 40 311 1 153 64 213 174 231 260 223 193 233 191 260 232 250 261 291 271 289 293 251 210 114 23 10 6 0 353
335 3 40 26 256 17 317 340 236 51 342 9 9 252 20 109 233 357 12 17 193 193 133 253 210 202 218 220 163 239 4 258 245 231 311 228 242 261 322 15 3 2 1 2 1
334 16 118 26 39 260 314 323 67 29 254 11 43 349 360 11 357 319 24 39 77 151 326 245 47 60 237 276 230 312 298 296 64 177 246 228 211 271 29 22 358 2 1 359 2
319 172 159 138 259 306 319 38 19 181 353 358 346 14 343 302 322 23 13 67 197 122 245 304 212 293 326 270 151 169 137 271 243 210 254 102 203 270 122 84 31 359 356 354 1
302 161 230 212 225 359 34 52 190 220 251 282 267 271 229 175 213 266 84 260 237 119 150 209 272 176 117 240 202 213 203 189 222 241 303 313 242 162 135 89 42 15 1 0 2
113 81 295 342 219 45 73 120 216 208 238 314 315 270 298 326 295 325 232 227 218 181 201 180 264 216 14 59 229 164 200 360 40 52 251 246 198 189 165 26 21 10 357 357 356
109 134 263 326 195 81 106 232 235 211 120 59 243 198 257 279 297 306 251 166 219 209 131 233 279 241 140 331 65 143 128 141 59 239 238 234 255 240 54 356 350 355 351 345 340
99 7 297 321 236 75 216 237 281 264 196 218 238 272 279 287 228 250 275 267 196 184 154 134 172 156 84 345 180 237 191 66 94 212 255 283 265 130 145 332 337 336 335 331 330
128 243 299 312 88 211 197 202 272 219 102 245 193 263 270 282 279 265 240 235 177 160 173 185 160 145 98 336 268 331 13 167 212 205 170 44 271 121 349 336 340 331 325 320 315
177 48 337 356 201 224 269 269 273 239 211 231 265 83 27 271 261 358 322 8 38 114 176 172 87 65 309 165 50 156 163 136 101 58 182 218 267 248 335 331 319 314 311 312 307
114 307 346 56 349 188 231 243 232 17 313 348 307 141 94 252 202 260 242 338 347 359 44 37 190 215 211 172 126 199 176 168 96 143 210 239 279 298 298 302 305 304 302 300 298
23 65 18 240 257 228 346 357 290 271 69 333 259 233 240 243 221 213 219 195 245 237 209 186 225 210 246 129 156 219 199 180 191 179 218 252 261 283 293 296 299 304 301 296 290
118 155 90 173 203 199 189 218 224 257 198 221 236 257 201 221 210 265 203 183 209 197 179 206 168 142 307 7 233 252 242 230 231 227 244 265 278 259 295 310 311 303 301 293 279
318 3 65 161 172 203 207 213 217 234 223 226 208 229 220 237 231 242 203 148 221 183 171 154 142 140 257 14 323 268 239 200 190 205 190 244 302 321 318 313 311 311 310 306 290